Home   Weather   Horten   Past weeks

Flag for Norway Past Weather in Horten, Norway — Yesterday and Last 2 Weeks

Now
41 °F

Broken clouds.


Feels Like: 30 °F
Forecast: 22 / 28 °F
Wind: 28 mph from South

Location: Oseberg

Current Time: Jan 16, 2017 at 12:08:43 pm

Latest Report: Jan 16, 2017 at 11:20 am


Visibility: N/A

Pressure: 30.27 "Hg

Humidity: 70%

Dew Point: 32 °F

Location of HortenLocation

Past Weather in Horten — Graph

°F

Horten Temperature Yesterday

Maximum temperature yesterday: 43 °F (at 1:20 pm)
Minimum temperature yesterday: 36 °F (at 12:50 am)
Average temperature yesterday: 40 °F

High & Low Weather Summary for the Past Weeks

 TemperatureHumidityPressure
High48 °F (Jan 6, 3:50 pm)100% (Jan 3, 7:50 pm)30.48 "Hg (Jan 3, 7:50 pm)
Low30 °F (Jan 14, 7:20 am)33% (Jan 5, 7:20 am)28.62 "Hg (Jan 11, 6:50 am)
Average41 °F75%29.70 "Hg
* Reported Jan 1 10:20 am — Jan 16 10:50 am, Horten, Weather by CustomWeather, © 2017

Note: Actual official high and low records may vary slightly from our data, if they occured in-between our weather recording intervals... More about our weather records

Advertising

Horten Weather History for the Previous 24 Hours

Scroll right to see more
 ConditionsComfort  
Time TempWeatherWind HumidityBarometerVisibility
10:50 am
Mon, Jan 16
41 °FPartly sunny.26 mph70%30.27 "HgN/A
10:20 am41 °FPartly sunny.24 mph66%30.27 "HgN/A
9:20 am41 °FPartly sunny.21 mph61%30.27 "HgN/A
8:50 am41 °FPassing clouds.22 mph61%30.27 "HgN/A
8:20 am39 °FPassing clouds.20 mph61%30.24 "HgN/A
7:50 am39 °FPassing clouds.20 mph61%30.27 "HgN/A
7:20 am39 °FPassing clouds.18 mph65%30.27 "HgN/A
6:50 am39 °FPassing clouds.15 mph65%30.27 "HgN/A
6:20 am39 °FPassing clouds.15 mph65%30.27 "HgN/A
5:50 am39 °FPassing clouds.15 mph61%30.24 "HgN/A
4:50 am39 °FPassing clouds.12 mph61%30.24 "HgN/A
3:50 am39 °FPassing clouds.9 mph61%30.27 "HgN/A
2:50 am39 °FPassing clouds.7 mph61%30.27 "HgN/A
1:50 am39 °FPassing clouds.8 mph61%30.27 "HgN/A
12:50 am39 °FPassing clouds.9 mph61%30.27 "HgN/A
11:50 pm
Sun, Jan 15
39 °FPassing clouds.7 mph61%30.27 "HgN/A
10:50 pm39 °FPassing clouds.7 mph65%30.24 "HgN/A
9:50 pm39 °FPassing clouds.2 mph61%30.24 "HgN/A
8:50 pm41 °FPassing clouds.7 mph53%30.24 "HgN/A
7:50 pm41 °FPassing clouds.7 mph57%30.21 "HgN/A
7:20 pm41 °FPassing clouds.9 mph53%30.21 "HgN/A
6:20 pm41 °FPassing clouds.8 mph49%30.21 "HgN/A
5:50 pm41 °FPassing clouds.5 mph49%30.18 "HgN/A
5:20 pm41 °FPassing clouds.7 mph49%30.18 "HgN/A
4:50 pm41 °FPassing clouds.8 mph49%30.18 "HgN/A
4:20 pm41 °FPassing clouds.8 mph49%30.15 "HgN/A
3:20 pm43 °FPassing clouds.3 mph46%30.15 "HgN/A
2:50 pm43 °FPassing clouds.7 mph42%30.15 "HgN/A
2:20 pm43 °FPassing clouds.6 mph46%30.12 "HgN/A
1:50 pm41 °FPassing clouds.5 mph49%30.12 "HgN/A
1:20 pm43 °FPassing clouds.5 mph46%30.12 "HgN/A
12:20 pm41 °FScattered clouds.6 mph49%30.09 "HgN/A
Weather by CustomWeather, © 2017

See weather overviewHow to use our weather pages